Location: Argonnex
(45.9500°N, 6.1333°E)
Time: 17:51:01
(UTC+00:00)

NOSS 2-1 (E) - Pass Details

Date: 28 January 2023
Orbit: 404 x 1772 km, 63.3° (Epoch: 28 March)

Event Time Altitude Azimuth Distance (km) Brightness Sun altitude
Rises 18:00:43 0° 322° (NW) 2,732 7.3 -15.0°
Reaches altitude 10° 18:02:38 10° 324° (NW) 1,961 6.5 -15.3°
Maximum altitude 18:07:02 78° 51° (NE) 776 3.9 -16.1°
Drops below altitude 10° 18:13:19 10° 138° (SE) 2,763 6.6 -17.2°
Sets 18:16:26 0° 140° (SE) 3,953 7.4 -17.7°
